Regional Weather Roundup
Issued by NWS Upton, NY

Current Version | Previous Version | Text Only | Print | Product List | Glossary On
Versions: 1 2 3 4 5 6 7 8 9 10 11 12 13 14 15 16 17 18 19 20 21 22 23 24 25 26 27 28 29 30 31 32 33 34 35 36 37 38 39 40 41 42 43 44 45 46 47 48 49 50
000
ASUS41 KOKX 260709
RWROKX

REGIONAL WEATHER ROUNDUP
NATIONAL WEATHER SERVICE NEW YORK NY
300 AM EDT MON JUN 26 2017

NOTE: "FAIR" INDICATES FEW OR NO CLOUDS BELOW 12,000 FEET WITH NO
SIGNIFICANT WEATHER AND/OR OBSTRUCTIONS TO VISIBILITY.

NYZ071-072-176-178-NJZ106-104-260800-
NEW YORK CITY METRO AREA

CITY           SKY/WX    TMP DP  RH WIND       PRES   REMARKS
Central Park   CLEAR     67  49  52 NW5       30.01F
Bronx Bot Gard   N/A     64  48  55 CALM      30.00R
LaGuardia APRT PTCLDY    69  51  52 N6        29.98S
Kennedy INTL   PTCLDY    68  52  56 CALM      29.98S
Breezy Point     N/A     66 N/A N/A NW2         N/A
Newark/Liberty PTCLDY    68  50  52 N7        29.99S
Teterboro      PTCLDY    66  50  56 N3        29.97F
$$

NYZ177-179-078>081-260800-
LONG ISLAND NEW YORK

CITY           SKY/WX    TMP DP  RH WIND       PRES   REMARKS
Jones Beach      N/A     66 N/A N/A N6          N/A
Matinecock PT  NOT AVBL
Farmingdale    NOT AVBL
MacArthur/ISP  CLEAR     65  54  67 N5        29.97S
Shirley        CLEAR     66  56  70 N7        29.97S
Mt Sinai Harb    N/A     64 N/A N/A N5          N/A
Westhampton    CLEAR     66  56  70 N8        29.98S
East Hampton   FAIR      63  57  82 N9        29.95F
Montauk          N/A     65  61  87 N7        29.97
$$

NYZ052-065-067-260800-
HUDSON VALLEY

CITY           SKY/WX    TMP DP  RH WIND       PRES   REMARKS
White Plains   NOT AVBL
Larchmont Harb   N/A     64 N/A N/A NW3         N/A
Croton O-T Hud   N/A     63 N/A N/A NE2         N/A
Newburgh       CLEAR     57  52  82 W6        30.01S
Montgomery     CLEAR     55  52  89 CALM      30.00S
Poughkeepsie   CLEAR     56  53  90 CALM      29.98S
Albany         PTCLDY    55  53  93 CALM      29.98F
$$

NJZ001-105-106-008-010-013-015-019>022-104-260800-
NEW JERSEY

CITY           SKY/WX    TMP DP  RH WIND       PRES   REMARKS
Newark/Liberty PTCLDY    68  50  52 N7        29.99S
Teterboro      PTCLDY    66  50  56 N3        29.97F
Caldwell       PTCLDY    62  53  72 CALM      30.00S
Somerville     CLEAR     58  55  90 CALM      30.00R
Linden         FAIR      66  49  54 CALM      30.00R
Perth Amboy      N/A     68 N/A N/A NW5         N/A
Sussex         PTCLDY    55  53  93 CALM      30.01F
Andover          N/A     56  53  90 CALM      30.02S
Trenton        CLEAR     65  53  65 N3        30.01R
Millville      PTCLDY    57  56  96 W3        30.01S
Atlantic City  NOT AVBL
Wrightstown    CLEAR     65  53  66 N7        29.99S
Toms River     CLEAR     57  54  89 S3        30.01R
Belmar         CLEAR     63  55  75 NW6       30.00F
$$

PAZ047>061-062-071-260800-
EASTERN PENNSYLVANIA

CITY           SKY/WX    TMP DP  RH WIND       PRES   REMARKS
Philadelphia   PTCLDY    71  46  40 NW9       30.01S
Allentown      PTCLDY    61  51  70 CALM      30.01F
Scranton       CLEAR     56  52  86 SE3       30.02F
$$

CTZ002-004>006-009-010-012-RIZ004-006-007-MAZ004-011-015-260800-
SOUTHERN NEW ENGLAND
 IN CT

CITY           SKY/WX    TMP DP  RH WIND       PRES   REMARKS
Bradley INTL   PTCLDY    59  54  83 SE3       29.97S
Hartford       MOCLDY    61  57  87 CALM      29.97F
Danbury        PTCLDY    56  53  90 SW3       29.99F
Wtrbury/Oxford PTCLDY    55  48  76 N5        29.98F
Bridgeport     PTCLDY    66  53  63 N3        29.96F
Meriden        MOCLDY    59  54  83 CALM      29.96F
New Haven      NOT AVBL
Chester        FAIR      63  54  72 NW5       29.97S
Groton         PTCLDY    65  55  70 N5        29.95S
Wilimantic     PTCLDY    62  58  86 CALM      29.97F

 IN RI

CITY           SKY/WX    TMP DP  RH WIND       PRES   REMARKS
Providence     CLOUDY    64  56  75 NW8       29.95S
Block Island   CLOUDY    64  59  83 NW7       29.96S
Westerly       MOCLDY    66  58  75 CALM      29.96S
 IN MA

CITY           SKY/WX    TMP DP  RH WIND       PRES   REMARKS
Boston         PTCLDY    65  55  70 W9        29.92F
Worcester      PTCLDY    56  53  90 W9        29.96F
Westfield      PTCLDY    56  56 100 CALM        N/A
Provincetown   MOCLDY    61  57  87 W7        29.92F
Nantucket      CLOUDY    60  60 100 CALM      29.93F
$$

ANZ330-335-338-340-345-350-353-355-260800-
COASTAL MARINE OBSERVATIONS


STATION/POSITION TIME  SKY/WX   TEMP    WIND        PRES    VSBY  WAVE
                                AIR SEA DIR/SP/G                  HT/PER
                 (UTC)          (F)     (DEG/KT/KT) (MB)    (MI)  (FT/S)
NY HARB ENTRANCE 0550            70 67  340/ 14/ 16 1014.8          2/ 8
20 S FIRE ISLAND 0650            70 69  340/ 16/ 17 1014.3          3/ 7
GREAT SOUTH BAY  0630            69 76  350/ 12/ 17   N/A
23 SSW MONTAUK P 0550            70 66              1013.8          3/ 8
15 E BARNEGAT LI 0630               64                N/A           2/ 7
HUDSON CANYON    0650            71 67  280/ 12/ 16 1014.3          2/ 7
KINGS POINT      0630            67 65   80/  2/  4 1014.9
EXECUTION ROCKS  0645            66      20/  2/  4   N/A
CENTRAL LI SOUND NOT AVBL
EASTERN LI SOUND NOT AVBL
ROBBINS REEF     0630                   340/  4/  5 1015.9
$$


>>>>>>>>>>>>>>>>>>>>>>>>>>>> KEY <<<<<<<<<<<<<<<<<<<<<<<<<<<
>                                                          <
>     SKY/WX - Sky Condition/Present Weather               <
>     TMP    - Temperature in Fahrenheit                   <
>     DP     - Dew Point in Fahrenheit                     <
>     RH     - Relative Humidity in Percent                <
>     WIND   - Direction (from) and Speed in MPH           <
>     PRES   - Mean Sea Level Pressure (inches of Hg)      <
>     WCI    - Wind Chill Index                            <
>     VSB    - VISIBILITY IN MILES                         <
>     HX     - HEAT INDEX                                  <
>     TC     - TEMPERATURE IN CELSIUS                      <
>     VRB    - VARIABLE WIND DIRECTION                     <
>                                                          <
>>>>>>>>>>>>>>>>>>>>>>>>>>>> KEY <<<<<<<<<<<<<<<<<<<<<<<<<<<



USA.gov is the U.S. government's official web portal to all federal, state and local government web resources and services.